Hourly Weather Ruhcha 1

Today, 11 April, Sunday

Time Temperature Precipitation Wind Pressure Humidity
00:00 +6°C° 0 mm 4 mps 754 mmHg 75%
01:00 +5°C° 0 mm 3 mps 754 mmHg 77%
02:00 +5°C° 0 mm 3 mps 754 mmHg 79%
03:00 +4°C° 0 mm 3 mps 754 mmHg 80%
04:00 +4°C° 0 mm 3 mps 754 mmHg 81%
05:00 +4°C° 0 mm 3 mps 755 mmHg 82%
06:00 +5°C° 0 mm 3 mps 755 mmHg 75%
07:00 +8°C° 0 mm 3 mps 755 mmHg 69%
08:00 +8°C° 0 mm 4 mps 755 mmHg 63%
09:00 +11°C° 0 mm 4 mps 756 mmHg 57%
10:00 +13°C° 0 mm 4 mps 756 mmHg 51%
11:00 +14°C° 0 mm 4 mps 756 mmHg 45%
12:00 +15°C° 0 mm 5 mps 756 mmHg 42%
13:00 +16°C° 0 mm 5 mps 756 mmHg 39%
14:00 +16°C° 0 mm 5 mps 756 mmHg 37%
15:00 +16°C° 0 mm 5 mps 756 mmHg 38%
16:00 +17°C° 0 mm 4 mps 756 mmHg 39%
17:00 +15°C° 0 mm 4 mps 755 mmHg 41%
18:00 +14°C° 0 mm 4 mps 756 mmHg 47%
19:00 +12°C° 0 mm 4 mps 756 mmHg 53%
20:00 +10°C° 0 mm 3 mps 756 mmHg 59%
21:00 +9°C° 0 mm 3 mps 756 mmHg 61%
22:00 +8°C° 0 mm 3 mps 756 mmHg 63%
23:00 +8°C° 0 mm 3 mps 756 mmHg 65%

Tomorrow, 12 April, Monday

Time Temperature Precipitation Wind Pressure Humidity
00:00 +7°C° 0 mm 3 mps 756 mmHg 66%
01:00 +5°C° 0 mm 3 mps 756 mmHg 68%
02:00 +5°C° 0 mm 3 mps 756 mmHg 69%
03:00 +4°C° 0 mm 3 mps 756 mmHg 70%
04:00 +4°C° 0 mm 3 mps 756 mmHg 71%
05:00 +4°C° 0 mm 3 mps 756 mmHg 72%
06:00 +5°C° 0 mm 3 mps 755 mmHg 67%
07:00 +6°C° 0 mm 4 mps 755 mmHg 63%
08:00 +7°C° 0 mm 4 mps 755 mmHg 59%
09:00 +10°C° 0 mm 4 mps 755 mmHg 53%
10:00 +10°C° 0 mm 5 mps 755 mmHg 46%
11:00 +13°C° 0 mm 5 mps 755 mmHg 40%
12:00 +14°C° 0 mm 5 mps 754 mmHg 38%
13:00 +15°C° 0 mm 4 mps 754 mmHg 35%
14:00 +17°C° 0 mm 4 mps 753 mmHg 33%
15:00 +15°C° 0 mm 4 mps 753 mmHg 36%
16:00 +16°C° 0 mm 3 mps 753 mmHg 40%
17:00 +16°C° 0 mm 2 mps 752 mmHg 44%
18:00 +14°C° 0 mm 2 mps 752 mmHg 48%
19:00 +13°C° 0 mm 2 mps 752 mmHg 52%
20:00 +10°C° 0 mm 2 mps 753 mmHg 56%
21:00 +10°C° 0 mm 2 mps 752 mmHg 58%
22:00 +9°C° 0 mm 3 mps 752 mmHg 60%
23:00 +9°C° 0 mm 3 mps 752 mmHg 62%

Day after tomorrow, 13 April, Tuesday

Time Temperature Precipitation Wind Pressure Humidity
00:00 +8°C° 0 mm 3 mps 752 mmHg 63%
01:00 +8°C° 0 mm 3 mps 752 mmHg 65%
02:00 +8°C° 0 mm 2 mps 752 mmHg 67%
03:00 +8°C° 0 mm 2 mps 752 mmHg 67%
04:00 +8°C° 0 mm 2 mps 752 mmHg 67%
05:00 +8°C° 0 mm 2 mps 752 mmHg 67%
06:00 +9°C° 0 mm 2 mps 752 mmHg 65%
07:00 +10°C° 0 mm 1 mps 752 mmHg 63%
08:00 +11°C° 0 mm 1 mps 752 mmHg 61%
09:00 +13°C° 0 mm 1 mps 752 mmHg 56%
10:00 +14°C° 0 mm 1 mps 752 mmHg 52%
11:00 +15°C° 0 mm 1 mps 752 mmHg 48%
12:00 +18°C° 0 mm 1 mps 751 mmHg 45%
13:00 +19°C° 0 mm 1 mps 751 mmHg 43%
14:00 +18°C° 0 mm 0 mps 751 mmHg 40%
15:00 +19°C° 0 mm 1 mps 751 mmHg 43%
16:00 +18°C° 0 mm 2 mps 750 mmHg 46%
17:00 +18°C° 0 mm 3 mps 750 mmHg 49%
18:00 +16°C° 0 mm 3 mps 750 mmHg 57%
19:00 +13°C° 0 mm 3 mps 750 mmHg 64%
20:00 +11°C° 0 mm 3 mps 750 mmHg 72%
21:00 +11°C° 0 mm 3 mps 750 mmHg 75%
22:00 +10°C° 0 mm 3 mps 750 mmHg 78%
23:00 +9°C° 0 mm 3 mps 749 mmHg 82%

14 April, Wednesday

Time Temperature Precipitation Wind Pressure Humidity
00:00 +9°C° 0 mm 3 mps 749 mmHg 84%
01:00 +8°C° 0 mm 3 mps 749 mmHg 87%
02:00 +8°C° 0 mm 3 mps 749 mmHg 90%
03:00 +8°C° 0.1 mm 2 mps 748 mmHg 91%
04:00 +8°C° 0.1 mm 2 mps 748 mmHg 93%
05:00 +8°C° 0.1 mm 2 mps 748 mmHg 94%
06:00 +8°C° 0.8 mm 2 mps 748 mmHg 94%
07:00 +9°C° 0.8 mm 2 mps 748 mmHg 94%
08:00 +9°C° 0.8 mm 2 mps 748 mmHg 95%
09:00 +9°C° 1.4 mm 2 mps 748 mmHg 95%
10:00 +9°C° 1.4 mm 2 mps 748 mmHg 96%
11:00 +10°C° 1.4 mm 1 mps 748 mmHg 96%
12:00 +9°C° 0.2 mm 2 mps 747 mmHg 95%
13:00 +9°C° 0.2 mm 2 mps 747 mmHg 94%
14:00 +10°C° 0.2 mm 2 mps 747 mmHg 93%
15:00 +11°C° 0.1 mm 1 mps 747 mmHg 92%
16:00 +11°C° 0.1 mm 1 mps 747 mmHg 90%
17:00 +12°C° 0.1 mm 1 mps 747 mmHg 88%
18:00 +11°C° 0 mm 1 mps 747 mmHg 89%
19:00 +10°C° 0 mm 2 mps 747 mmHg 90%
20:00 +10°C° 0 mm 2 mps 747 mmHg 90%
21:00 +9°C° 0 mm 2 mps 748 mmHg 92%
22:00 +9°C° 0 mm 2 mps 748 mmHg 93%
23:00 +9°C° 0 mm 2 mps 748 mmHg 94%

15 April, Thursday

Time Temperature Precipitation Wind Pressure Humidity
00:00 +9°C° 0 mm 2 mps 748 mmHg 94%
01:00 +9°C° 0 mm 2 mps 748 mmHg 94%
02:00 +9°C° 0 mm 2 mps 748 mmHg 94%
03:00 +8°C° 0 mm 2 mps 748 mmHg 94%
04:00 +8°C° 0 mm 2 mps 748 mmHg 94%
05:00 +7°C° 0 mm 2 mps 748 mmHg 94%
06:00 +8°C° 0 mm 2 mps 748 mmHg 92%
07:00 +8°C° 0 mm 2 mps 749 mmHg 90%
08:00 +9°C° 0 mm 2 mps 749 mmHg 87%
09:00 +10°C° 0.1 mm 2 mps 749 mmHg 82%
10:00 +12°C° 0.1 mm 2 mps 749 mmHg 76%
11:00 +13°C° 0.1 mm 2 mps 749 mmHg 70%
12:00 +14°C° 0.2 mm 2 mps 749 mmHg 67%
13:00 +13°C° 0.2 mm 3 mps 749 mmHg 64%
14:00 +14°C° 0.2 mm 3 mps 749 mmHg 61%
15:00 +13°C° 0.3 mm 4 mps 749 mmHg 67%
16:00 +12°C° 0.3 mm 5 mps 749 mmHg 72%
17:00 +12°C° 0.3 mm 5 mps 749 mmHg 78%
18:00 +10°C° 0.1 mm 5 mps 749 mmHg 81%
19:00 +8°C° 0.1 mm 5 mps 749 mmHg 84%
20:00 +7°C° 0.1 mm 5 mps 749 mmHg 87%
21:00 +7°C° 0 mm 5 mps 749 mmHg 88%
22:00 +6°C° 0 mm 5 mps 749 mmHg 88%
23:00 +5°C° 0 mm 5 mps 749 mmHg 89%

16 April, Friday

Time Temperature Precipitation Wind Pressure Humidity
00:00 +5°C° 0.2 mm 5 mps 749 mmHg 90%
01:00 +5°C° 0.2 mm 5 mps 749 mmHg 91%
02:00 +5°C° 0.2 mm 4 mps 749 mmHg 92%
03:00 +5°C° 0.1 mm 5 mps 749 mmHg 92%
04:00 +6°C° 0.1 mm 5 mps 750 mmHg 92%
05:00 +6°C° 0.1 mm 5 mps 750 mmHg 92%
06:00 +6°C° 0.1 mm 5 mps 750 mmHg 91%
07:00 +5°C° 0.1 mm 5 mps 751 mmHg 89%
08:00 +4°C° 0.1 mm 6 mps 751 mmHg 88%
09:00 +4°C° 0 mm 6 mps 752 mmHg 86%
10:00 +4°C° 0 mm 6 mps 752 mmHg 85%
11:00 +4°C° 0 mm 6 mps 753 mmHg 83%
12:00 +4°C° 0 mm 6 mps 753 mmHg 80%
13:00 +4°C° 0 mm 7 mps 754 mmHg 77%
14:00 +5°C° 0 mm 7 mps 754 mmHg 73%
15:00 +5°C° 0 mm 6 mps 755 mmHg 71%
16:00 +5°C° 0 mm 6 mps 755 mmHg 69%
17:00 +6°C° 0 mm 5 mps 755 mmHg 66%
18:00 +6°C° 0 mm 5 mps 756 mmHg 66%
19:00 +6°C° 0 mm 4 mps 756 mmHg 67%
20:00 +7°C° 0 mm 3 mps 757 mmHg 67%
21:00 +5°C° 0 mm 4 mps 757 mmHg 67%
22:00 +4°C° 0 mm 4 mps 758 mmHg 68%
23:00 +3°C° 0 mm 4 mps 758 mmHg 69%
Show more